Regional Weather Roundup
Issued by NWS

Home | Current Version | Previous Version | Graphics & Text | Print | Product List | Glossary On
Versions: 1 2 3 4 5 6 7 8 9 10 11 12 13 14 15 16 17 18 19 20 21 22 23 24 25 26 27 28 29 30 31 32 33 34 35 36 37 38 39 40 41 42 43 44 45 46 47 48 49 50
710
ASUS45 KTFX 291510
RWRMT
MONTANA REGIONAL WEATHER ROUNDUP
NATIONAL WEATHER SERVICE GREAT FALLS MT
900 AM MDT FRI JUL 29 2016

NOTE: "FAIR" INDICATES FEW OR NO CLOUDS BELOW 12000 FEET WITH NO
SIGNIFICANT WEATHER AND/OR OBSTRUCTIONS TO VISIBILITY.

MTZ001>007-043-291600-
WEST OF THE DIVIDE

CITY           SKY/WX    TMP DP  RH WIND       PRES   REMARKS
KALISPELL      SUNNY     72  55  55 N10       30.07S
MISSOULA       SUNNY     67  50  54 SE3       30.11S
BUTTE          SUNNY     61  39  44 CALM      30.22S
MULLAN PASS    SUNNY     69  43  38 CALM      30.23R
ANACONDA         N/A     66  45  45 CALM      30.18S
DEER LODGE       N/A     64  46  52 CALM      30.20R
EUREKA           N/A     70  52  52 CALM      30.09F
HAMILTON         N/A     70  48  46 CALM      30.11F
LIBBY            N/A     66  48  52 CALM      30.08S
PLAINS           N/A     65  48  53 CALM      30.07S
RONAN            N/A     69  55  60 N2        30.12S
$$

MTZ008-052>055-291600-
SOUTHWEST MONTANA

CITY           SKY/WX    TMP DP  RH WIND       PRES   REMARKS
BOZEMAN        SUNNY     66  51  58 CALM      30.16S
DILLON         SUNNY     62  49  62 SW6       30.18R
W YELLOWSTONE  SUNNY     57  39  51 CALM      30.28S
ENNIS          SUNNY     64  41  42 CALM      30.24S
THREE FORKS      N/A     67  62  84 CALM      30.13S
TWIN BRIDGES     N/A     61  45  55 S3        30.15R
$$

MTZ009-010-012-014-046-048-049-054-291600-
EAST SLOPES AND CENTRAL MONTANA

CITY           SKY/WX    TMP DP  RH WIND       PRES   REMARKS
CUT BANK       SUNNY     66  56  70 NE9       30.13S
GREAT FALLS    SUNNY     67  54  63 VRB3      30.13S
MALMSTROM AFB  SUNNY     66  56  69 W7        30.13S
HELENA         SUNNY     71  52  50 NW8       30.13F
CHOTEAU          N/A     68  54  60 VRB6      30.16S
CONRAD           N/A     65  61  87 CALM      30.15S
$$

MTZ011-013-016-021-045-047-050-051-291600-
NORTH CENTRAL MONTANA

CITY           SKY/WX    TMP DP  RH WIND       PRES   REMARKS
HAVRE          SUNNY     69  60  73 W5        30.07S
N BAR RANCH      N/A     72  50  46 NW7       30.16S
CHINOOK          N/A     70  61  73 W8        30.06S
$$

MTZ017>020-022>027-061-062-291600-
NORTHEAST MONTANA

CITY           SKY/WX    TMP DP  RH WIND       PRES   REMARKS
GLASGOW        MOSUNNY   68  60  75 SE9       30.06S
JORDAN           N/A     67  61  81 E5        30.06F
SIDNEY         CLOUDY    60  58  92 SW5       30.10S FOG
WOLF POINT     PTSUNNY   68  60  75 E5        30.08S
PLENTYWOOD       N/A     70  61  73 SE5       30.08F
POPLAR           N/A     66  61  82 CALM      30.08S
SCOBEY           N/A     65  49  56 NE1       30.07S
$$

MTZ028>42-056>058-291600-
SOUTHCENTRAL AND SOUTHEAST MONTANA

CITY           SKY/WX    TMP DP  RH WIND       PRES   REMARKS
BAKER          CLOUDY    63  59  87 SE5       30.12F
BILLINGS       MOSUNNY   67  53  61 S6        30.10S
LIVINGSTON     SUNNY     64  50  60 CALM      30.16S
MILES CITY     SUNNY     67  59  75 S8        30.08S
EKALAKA          N/A     63  58  83 E8        30.09S
FORSYTH          N/A     70  55  60 E6        30.06F
LAUREL           N/A     67  54  63 S3        30.09S
ROUNDUP          N/A     66  51  58 CALM      30.01S
$$

REGIONAL REPORTS...DAKOTAS

CITY           SKY/WX    TMP DP  RH WIND       PRES   REMARKS
WILLISTON      SUNNY     68  59  73 VRB6      30.09F
MINOT          MOSUNNY   71  59  65 S7        30.09F
DICKINSON      PTSUNNY   66  60  81 SE6       30.10F
BEACH          CLOUDY    63  63 100 S7        30.14S
CROSBY           N/A     66  64  94 S8        30.11S
WATFORD CITY     N/A    N/A N/A N/A MISG        N/A
BISMARCK       SUNNY     73  62  68 VRB3      30.09F
GRAND FORKS    MOSUNNY   70  57  63 NW5       30.09S
FARGO          SUNNY     72  59  63 CALM      30.08S
BUFFALO SD       N/A     62  59  90 S6        30.07R
RAPID CITY     MOSUNNY   67  58  72 S6        30.12S
$$

REGIONAL REPORTS...WYOMING/IDAHO/WASHINGTON

CITY           SKY/WX    TMP DP  RH WIND       PRES   REMARKS
GILLETTE       SUNNY     69  59  70 S8        30.13S
SHERIDAN       SUNNY     68  53  58 CALM      30.12S
BUFFALO WY     SUNNY     70  48  45 N7        30.16F
CODY           SUNNY     70  50  49 N5        30.18S
YELLOWSTONE LA   N/A     58  47  66 CALM      30.35S
IDAHO FALLS    SUNNY     62  48  60 CALM      30.12R
SALMON         SUNNY     63  45  51 CALM      30.11S
BOISE          SUNNY     77  42  28 CALM      30.00R HAZE
SPOKANE        MOSUNNY   74  53  48 E9        30.00S
$$

REGIONAL REPORTS...ALBERTA

CITY           SKY/WX    TMP DP  RH WIND       PRES   REMARKS
EDMONTON       SUNNY     64  59  82 SW6       29.99F
CALGARY        SUNNY     64  54  68 CALM      30.10S
LETHBRIDGE     SUNNY     64  59  82 SW6       30.10S
MEDICINE HAT   MOSUNNY   73  61  64 SW7       30.05F
WATERTON GATE    N/A     64  54  68 SW7         N/A
MILK RIVER       N/A     66  57  72 W3          N/A
$$

REGIONAL REPORTS...SASKATCHEWAN

CITY           SKY/WX    TMP DP  RH WIND       PRES   REMARKS
SWIFT CURRENT  CLOUDY    61  59  94 S5        30.05S
REGINA         PTSUNNY   64  55  72 S8        30.06S
SASKATOON      CLOUDY    66  63  88 W10       30.02S
CYPRESS HILLS    N/A     64  52  63 SW2         N/A
VAL MARIE        N/A     61  57  88 NE3         N/A
ROCKGLEN         N/A     66  59  77 SW6         N/A
ASSINIBOIA       N/A     64  59  82 S3          N/A
$$




USA.gov is the U.S. government's official web portal to all federal, state and local government web resources and services.